When you browse on this site, cookies collect data to enhance your experience and personalize the content and advertising you see.
Visit our Privacy Policy to learn more. By continuing to use the site, you agree to this use of cookies and data.
  • In Hungary
  • List of Countries
  • For 7 days
  • Water Temperature
  • Satellite Maps
  • Weather Map
  • News
  • Weather Widgets
  • user-avatar
    Login

    Hourly Weather Monastir

    Today, 21 April, Sunday

    Time Temperature Precipitation Wind Pressure Humidity
    00:00 +16°C° 0 mm 7 mps 754 mmHg 71%
    01:00 +16°C° 0 mm 6 mps 754 mmHg 74%
    02:00 +16°C° 0 mm 6 mps 754 mmHg 75%
    03:00 +16°C° 0 mm 7 mps 753 mmHg 77%
    04:00 +16°C° 0 mm 8 mps 753 mmHg 78%
    05:00 +16°C° 0 mm 8 mps 752 mmHg 77%
    06:00 +16°C° 0 mm 8 mps 752 mmHg 76%
    07:00 +16°C° 0 mm 9 mps 751 mmHg 75%
    08:00 +18°C° 0 mm 9 mps 751 mmHg 68%
    09:00 +21°C° 0 mm 9 mps 751 mmHg 60%
    10:00 +22°C° 0 mm 9 mps 750 mmHg 53%
    11:00 +23°C° 0 mm 9 mps 750 mmHg 49%
    12:00 +24°C° 0 mm 9 mps 749 mmHg 45%
    13:00 +26°C° 0 mm 9 mps 749 mmHg 41%
    14:00 +26°C° 0 mm 9 mps 748 mmHg 42%
    15:00 +26°C° 0 mm 8 mps 747 mmHg 44%
    16:00 +26°C° 0 mm 8 mps 747 mmHg 45%
    17:00 +23°C° 0 mm 8 mps 747 mmHg 51%
    18:00 +22°C° 0 mm 7 mps 747 mmHg 57%
    19:00 +20°C° 0 mm 7 mps 746 mmHg 63%
    20:00 +19°C° 0 mm 6 mps 747 mmHg 66%
    21:00 +19°C° 0 mm 6 mps 747 mmHg 70%
    22:00 +17°C° 0 mm 5 mps 747 mmHg 73%
    23:00 +18°C° 0 mm 4 mps 746 mmHg 75%

    Tomorrow, 22 April, Monday

    Time Temperature Precipitation Wind Pressure Humidity
    00:00 +18°C° 0 mm 3 mps 746 mmHg 77%
    01:00 +17°C° 0 mm 2 mps 745 mmHg 79%
    02:00 +17°C° 0 mm 3 mps 745 mmHg 80%
    03:00 +17°C° 0 mm 3 mps 745 mmHg 81%
    04:00 +17°C° 0 mm 4 mps 744 mmHg 81%
    05:00 +18°C° 0 mm 3 mps 744 mmHg 77%
    06:00 +18°C° 0 mm 3 mps 744 mmHg 72%
    07:00 +19°C° 0 mm 3 mps 744 mmHg 68%
    08:00 +23°C° 0 mm 6 mps 744 mmHg 51%
    09:00 +28°C° 0 mm 9 mps 744 mmHg 34%
    10:00 +32°C° 0 mm 12 mps 743 mmHg 17%
    11:00 +33°C° 0 mm 13 mps 744 mmHg 17%
    12:00 +33°C° 0 mm 14 mps 744 mmHg 17%
    13:00 +33°C° 0 mm 16 mps 744 mmHg 17%
    14:00 +33°C° 0 mm 15 mps 744 mmHg 18%
    15:00 +32°C° 0 mm 14 mps 744 mmHg 20%
    16:00 +32°C° 0 mm 13 mps 744 mmHg 21%
    17:00 +31°C° 0 mm 11 mps 744 mmHg 23%
    18:00 +29°C° 0 mm 10 mps 745 mmHg 25%
    19:00 +28°C° 0 mm 8 mps 745 mmHg 27%
    20:00 +27°C° 0 mm 7 mps 746 mmHg 29%
    21:00 +26°C° 0 mm 5 mps 747 mmHg 30%
    22:00 +25°C° 0 mm 4 mps 748 mmHg 32%
    23:00 +25°C° 0 mm 3 mps 748 mmHg 33%

    Day after tomorrow, 23 April, Tuesday

    Time Temperature Precipitation Wind Pressure Humidity
    00:00 +24°C° 0 mm 3 mps 748 mmHg 33%
    01:00 +22°C° 0 mm 3 mps 748 mmHg 34%
    02:00 +23°C° 0 mm 2 mps 748 mmHg 35%
    03:00 +21°C° 0 mm 2 mps 748 mmHg 35%
    04:00 +21°C° 0 mm 2 mps 748 mmHg 36%
    05:00 +21°C° 0 mm 2 mps 748 mmHg 35%
    06:00 +23°C° 0 mm 2 mps 749 mmHg 34%
    07:00 +24°C° 0 mm 2 mps 749 mmHg 33%
    08:00 +25°C° 0 mm 3 mps 749 mmHg 29%
    09:00 +27°C° 0 mm 4 mps 750 mmHg 26%
    10:00 +29°C° 0 mm 4 mps 750 mmHg 22%
    11:00 +30°C° 0 mm 5 mps 750 mmHg 20%
    12:00 +33°C° 0 mm 6 mps 750 mmHg 17%
    13:00 +34°C° 0 mm 6 mps 750 mmHg 15%
    14:00 +35°C° 0 mm 6 mps 750 mmHg 14%
    15:00 +35°C° 0 mm 6 mps 749 mmHg 14%
    16:00 +35°C° 0 mm 6 mps 749 mmHg 14%
    17:00 +33°C° 0 mm 6 mps 749 mmHg 16%
    18:00 +30°C° 0 mm 6 mps 750 mmHg 19%
    19:00 +29°C° 0 mm 5 mps 750 mmHg 22%
    20:00 +27°C° 0 mm 5 mps 751 mmHg 25%
    21:00 +26°C° 0 mm 4 mps 751 mmHg 29%
    22:00 +25°C° 0 mm 3 mps 752 mmHg 33%
    23:00 +24°C° 0 mm 2 mps 752 mmHg 38%

    24 April, Wednesday

    Time Temperature Precipitation Wind Pressure Humidity
    00:00 +23°C° 0 mm 2 mps 753 mmHg 43%
    01:00 +22°C° 0 mm 1 mps 753 mmHg 48%
    02:00 +21°C° 0 mm 1 mps 753 mmHg 51%
    03:00 +20°C° 0 mm 2 mps 753 mmHg 53%
    04:00 +20°C° 0 mm 3 mps 753 mmHg 56%
    05:00 +20°C° 0 mm 3 mps 753 mmHg 56%
    06:00 +20°C° 0 mm 3 mps 753 mmHg 55%
    07:00 +20°C° 0 mm 3 mps 753 mmHg 54%
    08:00 +22°C° 0 mm 4 mps 753 mmHg 50%
    09:00 +23°C° 0 mm 5 mps 753 mmHg 45%
    10:00 +26°C° 0 mm 5 mps 754 mmHg 40%
    11:00 +27°C° 0 mm 5 mps 753 mmHg 38%
    12:00 +28°C° 0 mm 6 mps 753 mmHg 35%
    13:00 +29°C° 0 mm 6 mps 753 mmHg 33%
    14:00 +29°C° 0 mm 6 mps 752 mmHg 36%
    15:00 +28°C° 0 mm 6 mps 752 mmHg 38%
    16:00 +28°C° 0 mm 6 mps 752 mmHg 41%
    17:00 +26°C° 0 mm 6 mps 752 mmHg 48%
    18:00 +23°C° 0 mm 6 mps 753 mmHg 55%
    19:00 +22°C° 0 mm 6 mps 754 mmHg 63%
    20:00 +21°C° 0 mm 7 mps 754 mmHg 65%
    21:00 +21°C° 0 mm 8 mps 755 mmHg 67%
    22:00 +20°C° 0 mm 8 mps 756 mmHg 69%
    23:00 +18°C° 0 mm 8 mps 756 mmHg 71%

    25 April, Thursday

    Time Temperature Precipitation Wind Pressure Humidity
    00:00 +18°C° 0 mm 9 mps 755 mmHg 72%
    01:00 +17°C° 0 mm 9 mps 755 mmHg 74%
    02:00 +17°C° 0 mm 8 mps 755 mmHg 76%
    03:00 +17°C° 0 mm 8 mps 755 mmHg 78%
    04:00 +16°C° 0 mm 7 mps 755 mmHg 80%
    05:00 +16°C° 0 mm 7 mps 755 mmHg 79%
    06:00 +17°C° 0 mm 7 mps 755 mmHg 78%
    07:00 +17°C° 0 mm 7 mps 756 mmHg 77%
    08:00 +18°C° 0 mm 7 mps 756 mmHg 70%
    09:00 +21°C° 0 mm 7 mps 756 mmHg 62%
    10:00 +23°C° 0 mm 7 mps 756 mmHg 55%
    11:00 +24°C° 0 mm 7 mps 756 mmHg 51%
    12:00 +26°C° 0 mm 7 mps 756 mmHg 46%
    13:00 +27°C° 0 mm 7 mps 756 mmHg 42%
    14:00 +27°C° 0 mm 8 mps 756 mmHg 43%
    15:00 +27°C° 0 mm 8 mps 756 mmHg 43%
    16:00 +27°C° 0 mm 8 mps 756 mmHg 44%
    17:00 +26°C° 0 mm 7 mps 757 mmHg 48%
    18:00 +24°C° 0 mm 6 mps 757 mmHg 52%
    19:00 +22°C° 0 mm 6 mps 757 mmHg 57%
    20:00 +22°C° 0 mm 5 mps 758 mmHg 59%
    21:00 +21°C° 0 mm 5 mps 758 mmHg 62%
    22:00 +21°C° 0 mm 4 mps 759 mmHg 64%
    23:00 +20°C° 0 mm 4 mps 759 mmHg 67%

    26 April, Friday

    Time Temperature Precipitation Wind Pressure Humidity
    00:00 +20°C° 0 mm 4 mps 759 mmHg 70%
    01:00 +19°C° 0 mm 4 mps 759 mmHg 72%
    02:00 +19°C° 0 mm 4 mps 759 mmHg 73%
    03:00 +18°C° 0 mm 3 mps 759 mmHg 74%
    04:00 +18°C° 0 mm 3 mps 759 mmHg 75%
    05:00 +18°C° 0 mm 4 mps 759 mmHg 73%
    06:00 +18°C° 0 mm 4 mps 759 mmHg 70%
    07:00 +19°C° 0 mm 5 mps 760 mmHg 68%
    08:00 +21°C° 0 mm 5 mps 760 mmHg 58%
    09:00 +23°C° 0 mm 5 mps 760 mmHg 49%
    10:00 +26°C° 0 mm 6 mps 760 mmHg 39%
    11:00 +27°C° 0 mm 6 mps 760 mmHg 36%
    12:00 +28°C° 0 mm 6 mps 760 mmHg 33%
    13:00 +29°C° 0 mm 6 mps 760 mmHg 31%
    14:00 +29°C° 0 mm 6 mps 760 mmHg 31%
    15:00 +29°C° 0 mm 7 mps 759 mmHg 32%
    16:00 +29°C° 0 mm 8 mps 759 mmHg 32%
    17:00 +27°C° 0 mm 8 mps 759 mmHg 35%
    18:00 +26°C° 0 mm 8 mps 760 mmHg 37%
    19:00 +24°C° 0 mm 8 mps 760 mmHg 40%
    20:00 +23°C° 0 mm 7 mps 760 mmHg 41%
    21:00 +22°C° 0 mm 7 mps 761 mmHg 42%
    22:00 +22°C° 0 mm 7 mps 761 mmHg 43%
    23:00 +21°C° 0 mm 7 mps 761 mmHg 44%
    Show more